Kuantan, Malaysia

3:33 PM +08 on October 15, 2019 (GMT +0800)
Kuantan

Weather History for WMKD - August, 2019

Change the Weather History Date:

Thursday, August 15, 2019

  Actual Average (WUND) Record (WUND)
Temperature  
Mean Temperature 82 °F -  
Max Temperature 93 °F 90 °F - (-1)
Min Temperature 70 °F 72 °F - (-1)
Cooling Degree Days 16    
Growing Degree Days 32 (Base 50)    
Moisture  
Dew Point 77 °F    
Average Humidity 81    
Maximum Humidity 94    
Minimum Humidity 56    
Precipitation  
Precipitation 0.00 in 0.27 in - ()
Sea Level Pressure  
Sea Level Pressure 29.85 in    
Wind  
Wind Speed 2 mph ()    
Max Wind Speed 10 mph    
Max Gust Speed -    
Visibility 5.9 miles    
Events      
Averages and records for this station are not official NWS values.
T = Trace of Precipitation, MM = Missing Value Source: Averaged Metar Reports

Daily Weather History Graph

Daily Weather History Graph

Search for Another Location

Airport or City:

Astronomy

Aug. 15, 2019 Rise Set
Actual Time 7:04 AM +08 7:18 PM +08
Civil Twilight 6:43 AM +08 7:40 PM +08
Nautical Twilight 6:18 AM +08 8:05 PM +08
Astronomical Twilight 5:53 AM +08 8:30 PM +08
Moon 7:18 PM +08 6:44 AM +08
Length of Visible Light 12h 57m
Length of Day
12h 14m
Full, 100% of the Moon is Illuminated
Aug 15
Full
Aug 15
Full
Aug 23
Last Quarter
Aug 30
New
Sep 6
First Quarter

Hourly Weather History & Observations

Time (+08) Temp. Heat Index Dew Point Humidity Pressure Visibility Wind Dir Wind Speed Gust Speed Precip Events Conditions
12:00 AM 78.8 °F - 75.2 °F 89% 29.89 in 5.6 mi Calm Calm - N/A   Mostly Cloudy
1:00 AM 77.0 °F - 75.2 °F 94% 29.89 in 5.6 mi Calm Calm - N/A   Mostly Cloudy
2:00 AM 78 °F - 75 °F 86% 29.87 in 6 mi Calm Calm - -   Haze
2:00 AM 77.0 °F - 75.2 °F 94% 29.86 in 5.6 mi Calm Calm - N/A   Mostly Cloudy
3:00 AM 78.8 °F - 75.2 °F 89% 29.86 in 5.6 mi Calm Calm - N/A   Mostly Cloudy
4:00 AM 77.0 °F - 75.2 °F 94% 29.86 in 5.6 mi Calm Calm - N/A   Mostly Cloudy
5:00 AM 78 °F - 75 °F 88% 29.86 in 6 mi Calm Calm - -   Haze
5:00 AM 77.0 °F - 75.2 °F 94% 29.86 in 5.6 mi Calm Calm - N/A   Mostly Cloudy
6:00 AM 77.0 °F - 75.2 °F 94% 29.86 in 5.6 mi Calm Calm - N/A   Mostly Cloudy
7:00 AM 77.0 °F - 75.2 °F 94% 29.86 in 5.6 mi Calm Calm - N/A   Mostly Cloudy
8:00 AM 78 °F - 76 °F 90% 29.90 in 4 mi Calm Calm - -   Haze
8:00 AM 78.8 °F - 75.2 °F 89% 29.89 in 3.7 mi Calm Calm - N/A   Mostly Cloudy
9:00 AM 80.6 °F 87.1 °F 77.0 °F 89% 29.92 in 5.0 mi Calm Calm - N/A   Mostly Cloudy
10:00 AM 86.0 °F 96.9 °F 77.0 °F 74% 29.92 in 6.2 mi Variable 3.5 mph - N/A   Mostly Cloudy
11:00 AM 88 °F - 78 °F 67% 29.90 in 7 mi South 3.5 mph - -   Haze
11:00 AM 87.8 °F 102.5 °F 78.8 °F 75% 29.89 in 6.2 mi Variable 3.5 mph - N/A   Mostly Cloudy
12:00 PM 91.4 °F 107.2 °F 78.8 °F 66% 29.89 in 6.2 mi Variable 4.6 mph - N/A   Mostly Cloudy
1:00 PM 91.4 °F 105.1 °F 77.0 °F 63% 29.86 in 6.2 mi Variable 8.1 mph - N/A   Mostly Cloudy
2:00 PM 92 °F - 78 °F 56% 29.84 in 7 mi SSW 5.8 mph - -   Haze
2:00 PM 91.4 °F 107.2 °F 78.8 °F 66% 29.83 in 6.2 mi Variable 5.8 mph - N/A   Mostly Cloudy
3:00 PM 93.2 °F 107.2 °F 77.0 °F 59% 29.80 in 6.2 mi Variable 5.8 mph - N/A   Mostly Cloudy
4:00 PM 89.6 °F 108.2 °F 80.6 °F 75% 29.77 in 6.2 mi Variable 4.6 mph - N/A   Mostly Cloudy
5:00 PM 90 °F - 81 °F 68% 29.77 in 6 mi East 5.8 mph - -   Haze
5:00 PM 89.6 °F 108.2 °F 80.6 °F 75% 29.77 in 6.2 mi East 5.8 mph - N/A   Mostly Cloudy
6:00 PM 87.8 °F 104.9 °F 80.6 °F 79% 29.77 in 6.2 mi Variable 5.8 mph - N/A   Mostly Cloudy
7:00 PM 86.0 °F 99.3 °F 78.8 °F 79% 29.77 in 5.0 mi Variable 3.5 mph - N/A   Mostly Cloudy
8:00 PM 84 °F - 78 °F 78% 29.82 in 7 mi East 1.2 mph - -   Partly Cloudy
8:00 PM 84.2 °F 96.1 °F 78.8 °F 84% 29.80 in 6.2 mi Variable 1.2 mph - N/A   Mostly Cloudy
9:00 PM 82.4 °F 90.9 °F 77.0 °F 84% 29.83 in 6.2 mi Variable 4.6 mph - N/A   Mostly Cloudy
10:00 PM 77.0 °F - 73.4 °F 89% 29.89 in 6.2 mi NNW 10.4 mph - N/A   Mostly Cloudy
11:00 PM 78 °F - 74 °F 84% 29.88 in 7 mi Calm Calm - -   Partly Cloudy
11:00 PM 78.8 °F - 73.4 °F 83% 29.86 in 6.2 mi Calm Calm - N/A   Mostly Cloudy